[[{"header":{"parameterUnit":"m.s-1","parameterCategory":1,"la1":30.2991,"la2":30.254,"lo1":-89.0895,"lo2":-89.0444,"dy":0.0017,"dx":0.0017,"nx":28,"ny":28,"refTime":"2025-11-09T03:00:00:Z","depth":0,"parameterNumber":2,"parameterNumberName":"U-component_of_WINDS"},"data":[0,0,0,0,0,0,0,0,0,0,0,0,0,0,0,0,0,0,0,0,0,0,0,0,0,0,0,0,0,0,0,0,0,0,0,0,0,0,0,0,0,0,0,0,0,0,0,0,0,0,0,0,0,0,0,0,0,0,1.3837,1.3838,0,1.3877,1.3877,1.3878,1.3913,1.3914,1.3914,1.3914,1.3954,1.3955,1.3956,0,0,0,0,0,0,0,0,0,0,0,0,0,1.3794,1.3795,1.3837,1.3838,1.3838,1.3877,1.3877,1.3878,1.3913,1.3914,1.3914,1.3915,1.3954,1.3955,1.3956,0,0,0,0,0,0,0,0,0,0,0,0,0,1.3821,1.3795,1.3837,1.386,1.3863,1.3877,1.3877,1.3878,1.3913,1.3914,1.3914,1.3915,1.3954,1.3955,1.3956,1.3949,0,0,1.3959,1.3959,0,0,0,0,0,0,0,0,1.3819,1.3823,1.3856,1.3859,1.3862,1.3891,1.3877,1.3902,1.3913,1.3894,1.3914,1.3915,1.3933,1.3935,1.3941,1.3951,1.3953,1.3959,1.3959,1.396,1.396,0,0,0,0,0,0,0,1.3818,1.3821,1.3853,1.3857,1.386,1.387,1.3874,1.3882,1.3909,1.3896,1.3898,1.3903,1.3934,1.394,1.3943,1.3953,1.3959,1.396,1.396,1.3961,1.3964,1.3963,0,0,0,0,0,0,1.3812,1.3819,1.3852,1.3854,1.3842,1.387,1.3875,1.3881,1.3909,1.3914,1.3902,1.3904,1.3938,1.3941,1.3944,1.3941,1.396,1.3961,1.3961,1.3964,1.3964,1.3963,0,0,0,0,0,0,1.3811,1.3815,1.385,1.3837,1.3843,1.387,1.3876,1.3881,1.3887,1.3914,1.3919,1.3903,1.3939,1.3943,1.3949,1.3942,1.3961,1.3962,1.3965,1.3964,1.3963,1.3932,0,0,0,0,0,0,1.381,1.3814,1.3811,1.3837,1.3843,1.3853,1.3876,1.3881,1.3889,1.3892,1.3916,1.3921,1.394,1.3947,1.395,1.3944,1.3963,1.3966,1.3965,1.3964,1.3933,1.393,1.3927,0,0,0,0,0,1.3808,1.3799,1.3811,1.3814,1.384,1.3852,1.3856,1.3878,1.3888,1.3886,1.3904,1.392,1.3943,1.3947,1.3951,1.3945,1.3966,1.3965,1.3964,1.3935,1.3931,1.3927,0,0,0,0,0,0,1.377,1.3803,1.3816,1.3816,1.3831,1.3858,1.3856,1.3872,1.3884,1.3887,1.3913,1.3919,1.3922,1.3934,1.3939,1.3942,1.3957,1.3956,1.3934,1.393,1.3927,1.3924,1.3964,0,0,0,0,0,1.3763,1.377,1.3798,1.3795,1.3802,1.3828,1.3834,1.385,1.3867,1.3874,1.3892,1.3908,1.3919,1.3925,1.3936,1.3936,1.3943,1.3934,1.3931,1.3928,1.3927,1.3931,1.3928,1.3959,1.3959,1.3959,0,0,1.3745,1.3764,1.3767,1.3788,1.3802,1.381,1.3833,1.3839,1.3846,1.3874,1.3882,1.3896,1.3916,1.3919,1.3921,1.3929,1.3921,1.3927,1.3924,1.3925,1.3929,1.3926,1.3923,1.3959,1.3959,1.3959,0,0,1.3718,1.3733,1.3733,1.3748,1.3769,1.3787,1.3787,1.3813,1.3824,1.3832,1.3854,1.3863,1.388,1.3895,1.3904,1.3887,1.3903,1.389,1.3873,1.3876,1.3873,1.3871,1.3866,1.3864,1.3889,1.3889,1.3889,0,1.3694,1.3706,1.3731,1.3737,1.3747,1.3775,1.3777,1.3789,1.3813,1.382,1.3829,1.3854,1.3869,1.3877,1.3874,1.388,1.3882,1.3887,1.3872,1.387,1.3868,1.3864,1.3862,1.3887,1.3888,1.3888,1.3888,0,1.3676,1.3685,1.3683,1.3707,1.3716,1.372,1.3747,1.3754,1.377,1.3787,1.3797,1.3817,1.3834,1.3837,1.3852,1.3849,1.3853,1.3866,1.3882,1.3863,1.386,1.3858,1.3885,1.3886,1.3886,1.3886,0,0,1.3624,1.3664,1.3663,1.3676,1.3704,1.3711,1.3717,1.3735,1.3741,1.3758,1.3765,1.3781,1.3795,1.3806,1.3823,1.3826,1.3813,1.3839,1.384,1.3834,1.3813,1.3803,1.38,1.3825,1.3825,1.3825,1.3812,0,1.3602,1.3614,1.3639,1.3644,1.3653,1.3682,1.3688,1.3707,1.3724,1.3735,1.3755,1.3766,1.3783,1.379,1.3794,1.3814,1.381,1.3815,1.3832,1.3832,1.3826,1.3798,1.3787,1.3774,1.3811,1.381,1.381,0,1.3576,1.3593,1.3599,1.363,1.3635,1.3639,1.366,1.367,1.3692,1.3705,1.3719,1.3739,1.3749,1.3764,1.3779,1.3782,1.3791,1.3802,1.3803,1.3804,1.382,1.38,1.377,1.3768,1.3808,1.3808,1.3808,0,1.3538,1.3563,1.357,1.358,1.3615,1.3618,1.3633,1.3657,1.3667,1.3685,1.3692,1.3711,1.3721,1.3736,1.3761,1.3769,1.3774,1.379,1.3786,1.3785,1.3784,1.3784,1.3755,1.379,1.379,1.379,1.379,0,1.3511,1.3514,1.3554,1.3559,1.3564,1.3594,1.3598,1.3616,1.3637,1.3647,1.3673,1.3682,1.3715,1.3728,1.3748,1.3758,1.3762,1.3774,1.3779,1.3771,1.377,1.3777,1.3778,1.3789,1.379,1.379,1.379,0,1.3468,1.3495,1.3506,1.354,1.3549,1.3551,1.3581,1.3587,1.3608,1.362,1.3624,1.3656,1.3673,1.3701,1.3725,1.3739,1.3746,1.3754,1.3738,1.3741,1.3735,1.3736,1.371,1.3709,1.3744,1.3744,1.3743,0,1.3448,1.3452,1.3487,1.3496,1.351,1.3524,1.3535,1.3566,1.3577,1.3605,1.3609,1.3628,1.3645,1.3671,1.3697,1.3717,1.3726,1.3716,1.3729,1.3722,1.3727,1.3726,1.3728,1.3712,1.3712,1.3711,1.3711,0,1.3411,1.3425,1.3441,1.3462,1.3476,1.3494,1.3513,1.3519,1.3554,1.3565,1.3584,1.3597,1.3624,1.3644,1.3668,1.3684,1.3704,1.3707,1.3707,1.3699,1.369,1.3696,1.373,1.3707,1.3708,1.3708,1.3708,1.3708,1.3379,1.3385,1.3412,1.3429,1.3448,1.3466,1.3475,1.3498,1.3513,1.3538,1.3556,1.3573,1.3599,1.3634,1.365,1.3665,1.3673,1.3673,1.3673,1.3673,1.367,1.3688,1.367,1.367,1.367,1.367,1.367,0,1.3344,1.3363,1.3379,1.3407,1.3421,1.344,1.3464,1.3475,1.349,1.3513,1.353,1.3553,1.3573,1.3602,1.3625,1.3632,1.3641,1.3636,1.3636,1.364,1.3661,1.3659,1.3628,1.3628,1.3628,1.3628,1.3628,1.3628,1.3327,1.3338,1.3356,1.3377,1.3397,1.3415,1.3427,1.3445,1.3464,1.3489,1.3506,1.3525,1.3551,1.3577,1.3597,1.3605,1.3612,1.3604,1.3615,1.3634,1.3638,1.3642,1.364,1.3606,1.3606,1.3593,1.3593,1.3593]},{"header":{"parameterUnit":"m.s-1","parameterCategory":1,"la1":30.2991,"la2":30.254,"lo1":-89.0895,"lo2":-89.0444,"dy":0.0017,"dx":0.0017,"nx":28,"ny":28,"refTime":"2025-11-09T03:00:00:Z","depth":0,"parameterNumber":3,"parameterNumberName":"V-component_of_WINDS"},"data":[0,0,0,0,0,0,0,0,0,0,0,0,0,0,0,0,0,0,0,0,0,0,0,0,0,0,0,0,0,0,0,0,0,0,0,0,0,0,0,0,0,0,0,0,0,0,0,0,0,0,0,0,0,0,0,0,0,0,3.397,3.397,0,3.402,3.402,3.4021,3.4015,3.4014,3.4013,3.4012,3.406,3.4062,3.4064,0,0,0,0,0,0,0,0,0,0,0,0,0,3.3864,3.3866,3.397,3.397,3.3971,3.402,3.402,3.4021,3.4015,3.4014,3.4013,3.4012,3.406,3.4062,3.4065,0,0,0,0,0,0,0,0,0,0,0,0,0,3.3912,3.3867,3.397,3.3974,3.3975,3.402,3.402,3.4021,3.4015,3.4014,3.4012,3.4011,3.4059,3.4062,3.4065,3.4108,0,0,3.4074,3.4076,0,0,0,0,0,0,0,0,3.3909,3.3916,3.3973,3.3974,3.3975,3.401,3.4001,3.405,3.4015,3.4,3.4012,3.4011,3.4044,3.4049,3.4061,3.411,3.4113,3.4075,3.4076,3.4078,3.4079,0,0,0,0,0,0,0,3.3906,3.3913,3.399,3.3973,3.3975,3.3972,3.3977,3.401,3.4028,3.4001,3.4,3.4007,3.4045,3.4058,3.4062,3.4113,3.4075,3.4077,3.4079,3.408,3.4198,3.4199,0,0,0,0,0,0,3.3902,3.3911,3.3988,3.3991,3.3938,3.3975,3.3981,3.4,3.4028,3.4031,3.4008,3.4006,3.4053,3.4058,3.4063,3.4114,3.4078,3.4081,3.4082,3.4196,3.4198,3.4199,0,0,0,0,0,0,3.39,3.3909,3.3986,3.3951,3.396,3.3978,3.3999,3.4001,3.4014,3.4033,3.4036,3.4018,3.4052,3.4059,3.4097,3.4115,3.4082,3.4085,3.4195,3.4197,3.4199,3.4216,0,0,0,0,0,0,3.3897,3.3908,3.3926,3.3951,3.3962,3.402,3.4,3.4003,3.402,3.4018,3.4043,3.4046,3.4052,3.4092,3.41,3.4119,3.4087,3.4193,3.4196,3.4198,3.4214,3.4218,3.4222,0,0,0,0,0,3.3893,3.3929,3.3927,3.3936,3.3985,3.4021,3.4027,3.4034,3.4022,3.4038,3.405,3.4045,3.4112,3.4096,3.4104,3.4125,3.4192,3.4195,3.4198,3.4212,3.4217,3.4222,0,0,0,0,0,0,3.3905,3.3932,3.3931,3.3976,3.3996,3.402,3.4042,3.404,3.4063,3.4061,3.4067,3.4073,3.411,3.4121,3.4103,3.4166,3.415,3.4155,3.4158,3.4163,3.4167,3.4163,3.409,0,0,0,0,0,3.3913,3.3941,3.3963,3.4001,3.4011,3.4025,3.4041,3.4044,3.4065,3.4073,3.4087,3.4107,3.4132,3.4148,3.4173,3.4215,3.4219,3.4233,3.4237,3.4241,3.4244,3.4265,3.4271,3.4209,3.4209,3.4209,0,0,3.393,3.3948,3.3966,3.4004,3.402,3.4047,3.4032,3.4062,3.4081,3.4077,3.4113,3.4124,3.4146,3.4186,3.4204,3.4196,3.4262,3.4244,3.4247,3.4249,3.4269,3.4274,3.428,3.4211,3.421,3.421,0,0,3.3974,3.3992,3.4024,3.404,3.4065,3.4073,3.4081,3.4104,3.4111,3.4148,3.4144,3.4167,3.4211,3.4226,3.4239,3.4286,3.4281,3.4294,3.4315,3.4335,3.434,3.4344,3.4359,3.4364,3.4297,3.4297,3.4297,0,3.3992,3.4034,3.4041,3.4071,3.4086,3.4084,3.4115,3.413,3.4161,3.4171,3.4162,3.4215,3.423,3.4272,3.4283,3.4295,3.4302,3.4291,3.4339,3.4343,3.4347,3.4361,3.4367,3.4299,3.4298,3.4298,3.4298,0,3.4053,3.4082,3.4104,3.4134,3.4153,3.4183,3.4193,3.421,3.4211,3.422,3.4255,3.4273,3.4299,3.431,3.4311,3.4351,3.4345,3.4338,3.4321,3.4354,3.4367,3.4373,3.43,3.43,3.4299,3.4299,0,0,3.4107,3.4139,3.4147,3.4159,3.4185,3.4206,3.4235,3.4262,3.4276,3.4296,3.4319,3.4356,3.4348,3.4363,3.4366,3.4384,3.4417,3.4374,3.4374,3.4379,3.4459,3.4464,3.447,3.4414,3.4416,3.4416,3.4457,0,3.4152,3.4205,3.4211,3.4257,3.4282,3.4279,3.4304,3.4321,3.4329,3.4351,3.4359,3.4384,3.4373,3.4382,3.44,3.4409,3.4433,3.4407,3.4434,3.4435,3.4428,3.4477,3.4483,3.452,3.4462,3.4463,3.4464,0,3.4212,3.4234,3.4283,3.4303,3.4313,3.4336,3.4359,3.438,3.4399,3.4403,3.4419,3.4419,3.4447,3.443,3.4467,3.4449,3.446,3.4467,3.4468,3.447,3.4451,3.4479,3.4533,3.4538,3.4472,3.4472,3.4471,0,3.4244,3.4286,3.432,3.4331,3.4355,3.4371,3.4381,3.4399,3.4414,3.4434,3.4443,3.4465,3.4478,3.4494,3.45,3.4487,3.4536,3.452,3.4539,3.4538,3.4549,3.4548,3.4603,3.4558,3.4558,3.4558,3.4558,0,3.4293,3.4323,3.4334,3.4355,3.4387,3.4393,3.4423,3.4433,3.4448,3.4469,3.4468,3.4488,3.4494,3.4514,3.4518,3.4547,3.4553,3.4556,3.4557,3.4556,3.4555,3.4563,3.456,3.4559,3.4559,3.4559,3.4558,0,3.4334,3.4344,3.438,3.44,3.4405,3.4428,3.4444,3.4463,3.447,3.4497,3.4503,3.4514,3.4538,3.4545,3.4573,3.4575,3.4609,3.4608,3.4603,3.4602,3.462,3.4618,3.4682,3.4689,3.464,3.4641,3.4641,0,3.4365,3.4387,3.4409,3.4423,3.4434,3.4457,3.4472,3.4478,3.4493,3.4514,3.453,3.4553,3.4572,3.4609,3.4619,3.464,3.4638,3.4659,3.4641,3.4639,3.4636,3.4634,3.4636,3.4662,3.4662,3.4663,3.4663,0,3.4417,3.4419,3.4441,3.4464,3.4481,3.4499,3.4516,3.4528,3.4536,3.4552,3.4576,3.4591,3.4619,3.4641,3.4662,3.4671,3.4668,3.4669,3.4674,3.4673,3.4668,3.4669,3.461,3.4667,3.4667,3.4666,3.4666,3.4666,3.4452,3.4471,3.4488,3.4512,3.4525,3.4541,3.4559,3.4568,3.4588,3.4612,3.4614,3.4639,3.4655,3.4682,3.4692,3.4711,3.4705,3.4713,3.4715,3.4716,3.4717,3.4666,3.4715,3.4715,3.4715,3.4715,3.4715,0,3.4502,3.4513,3.4535,3.4558,3.4576,3.4572,3.459,3.4605,3.4627,3.4643,3.4661,3.4687,3.4708,3.4719,3.4739,3.4752,3.4751,3.4757,3.4756,3.4757,3.4722,3.4715,3.4757,3.4757,3.4757,3.4757,3.4757,3.4757,3.453,3.4561,3.4566,3.4602,3.4613,3.4638,3.4648,3.4662,3.4674,3.4703,3.4721,3.4728,3.474,3.4761,3.478,3.4782,3.4789,3.4796,3.4797,3.4764,3.476,3.4756,3.4749,3.4798,3.4798,3.4831,3.4831,3.4831]}]]